SL-16 DEB, 24299

Orbit data source: Space-Track

SL-16 DEB, 24299 is space debris in LEO originally from a launch on Wed, 04 Sep 1996 UTC launched from the Tyuratam Missile And Space Complex (TTMTR). Debris objects in space refer to the collection of defunct objects orbiting the Earth. Examples of debris include non-operational satellites, rocket bodies, and fragments generated from explosions, collisions, or faulty payload assembly.

Loading next visibility...
Identifier
24299, 1996-051C
Orbit
LEO
Country
Flag of CISCIS
Related business
Manufacturer
Yuzhnoe
Mission
Spacecraft
Bus & Motor
SEP MOTOR COVER, Unknown motor
Mass
~0 kg wet, ~1 kg dry
Launch date (UTC)
1996-09-04 (29 years ago)
Launch vehicle
Unknown
Launch site
Tyuratam Missile And Space Complex (TTMTR)
Object type
Payload
Rocket body
Debris
Shape & HBR
Unknown
Radar Cross Section
Small (<0.1 m²)

Expand to show TLE details & history
Last TLE update: 22 hours ago

TLE from 22 hours ago
0 SL-16 DEB
1 24299U 96051C   25261.00297511  .00000102  00000-0  13103-3 0  9992
2 24299  71.0345 250.9492 0188112  44.4895 317.1138 13.75768663457286
Epoch: 2025-09-18T00:04Z
TLE epoch observation values (Epoch: 2025-09-18T00:04:17.049Z)
Latitude
-0.00005°
Longitude
-107.29267°
Altitude
881.104 km
Speed
7.462 km/s
True Right ascension
16h 43m 47s
True Declination
0° 00' 00"
Sunlit
Object was in daylight at epoch
Visualization orbit readout
Latitude
Unknown
Longitude
Unknown
Altitude
Unknown
Speed
Unknown
Apparent Right ascension
Unknown
Apparent Declination
Unknown
Sunlit
N/A
Visualization observer readout
Local Sidereal Time
14:43:19
Azimuth
Unknown
Elevation
Unknown
Doppler factor
Unknown
Orbital elements
Apogee altitude
1,115.249 km
Perigee altitude
838.535 km
Semi-major axis
7,355.029 km
Eccentricity
0.01881
Inclination
71.0345°
RAAN
250.9492°
Arg. of periapsis
44.4895°
True anomaly
315.62129°
Mean anomaly
317.1138°
Eccentric anomaly
316.37012°
Mean motion
3.44086 °/min
Orbital period
104.63 mins
BSTAR
0.00013103
Loading maneuver chart data...
Computing Atmospheric mass density...
Loading historical data...
Loading historical data...
Loading historical data...
Loading historical data...
Loading historical data...
Loading historical data...
Loading historical data...

Documentation

Showing up to 5 results
|